This is the latest recevied weather packets stored in our database for station/object DB7GV-8. If no packets are shown the sender has not sent any weather packets the latest 10 day(s).
| Time | Temp. | Humidity | Pressure | Rain* | Wind** | Luminosity | Snow |
|---|---|---|---|---|---|---|---|
| 1777625292 | 21.67° C | 22% | 1025.5 hPa | - | - | - | - |
| 1777624386 | 21.67° C | 21% | 1025.5 hPa | - | - | - | - |
| 1777623481 | 21.67° C | 19% | 1025.5 hPa | - | - | - | - |
| 1777622576 | 38.89° C | - | 1025.6 hPa | - | - | - | - |
| 1777621671 | 38.89° C | - | 1025.7 hPa | - | - | - | - |
| 1777620765 | 39.44° C | 10% | 1025.7 hPa | - | - | - | - |
| 1777619859 | 37.22° C | 11% | 1025.7 hPa | - | - | - | - |
| 1777618954 | 37.22° C | 12% | 1025.7 hPa | - | - | - | - |
| 1777618049 | 31.11° C | 19% | 1025.8 hPa | - | - | - | - |
| 1777617143 | 26.11° C | 29% | 1025.7 hPa | - | - | - | - |
| 1777616238 | 5° C | 56% | 1025.7 hPa | - | - | - | - |
| 1777615333 | 4.44° C | 58% | 1025.6 hPa | - | - | - | - |
| 1777614428 | 3.89° C | 59% | 1025.5 hPa | - | - | - | - |
| 1777613522 | 3.89° C | 59% | 1025.6 hPa | - | - | - | - |
| 1777612616 | 3.89° C | 58% | 1025.6 hPa | - | - | - | - |
| 1777611711 | 3.33° C | 58% | 1025.6 hPa | - | - | - | - |
| 1777610805 | 3.33° C | 58% | 1025.4 hPa | - | - | - | - |
| 1777609900 | 3.33° C | 57% | 1025.2 hPa | - | - | - | - |
| 1777608995 | 3.33° C | 57% | 1025.2 hPa | - | - | - | - |
| 1777608089 | 3.33° C | 57% | 1025.2 hPa | - | - | - | - |
| 1777607184 | 3.89° C | 55% | 1025.2 hPa | - | - | - | - |
| 1777606279 | 3.89° C | 54% | 1025.1 hPa | - | - | - | - |
| 1777605372 | 3.89° C | 54% | 1025 hPa | - | - | - | - |
| 1777604467 | 3.89° C | 54% | 1025 hPa | - | - | - | - |
| 1777603562 | 4.44° C | 53% | 1025.1 hPa | - | - | - | - |
* Rain since midnight (hover to see other rain measurements)
** Current wind speed in m/s (hover to see current wind gust speed)